A/2017 U7

Japanese version
Home page
Updated on March 5, 2018

---------------------------------------------------------------------

* Profile

Discovery Date October 29, 2017
Magnitude 20.1 mag
Discoverer Pan-STARRS 1 telescope (Haleakala)

* Orbital Elements

Epoch 2019 Aug. 25.0 TT = JDT 2458720.5
T 2019 Sept. 11.21093 TT                                MPCW
q   6.4178352            (2000.0)            P               Q
z  -0.0001150      Peri.  326.02357     +0.53158001     -0.59451857
 +/-0.0000023      Node   276.23314     -0.57718434     -0.77555085
e   1.0007381      Incl.  142.63523     -0.61990397     +0.21229355
From 87 observations 2017 Aug. 18-2018 Feb. 10, mean residual 0".2.

* Magnitudes Graph

        H = 10.0  G = 0.15

---------------------------------------------------------------------

The orbital elements are published on M.P.E.C. 2018-E17.
The magnitudes graphs are made with Comet for Windows.

---------------------------------------------------------------------

Copyright(C) Seiichi Yoshida (comet@aerith.net). All rights reserved.